Location: Newark
(12.4436°N, 0.6167°W)
Time: 09:18:59
(UTC+00:00)

Vanguard 2 - Pass Details

Date: 17 December 2019
Orbit: 553 x 2938 km, 32.9° (Epoch: 24 January)

Event Time Altitude Azimuth Distance (km) Brightness Sun altitude
Rises 01:23:01 0° 291° (WNW) 5,401 - -67.1°
Reaches altitude 10° 01:26:46 10° 300° (WNW) 4,719 - -66.3°
Maximum altitude 01:39:22 34° 1° (N) 3,845 - -63.7°
Exits shadow 01:47:45 24° 42° (NE) 4,639 11.4 -61.8°
Drops below altitude 10° 01:54:48 10° 61° (ENE) 5,757 12.1 -60.3°
Sets 02:00:03 0° 70° (ENE) 6,691 12.6 -59.1°
